Weather History for KAUW - November, 2012

Change the Weather History Date:

Monday, November 19, 2012

  Actual Average Record
Temperature  
Mean Temperature 46 °F 31 °F  
Max Temperature 51 °F 38 °F 63 °F (1930)
Min Temperature 40 °F 23 °F 0 °F (1914)
Degree Days  
Heating Degree Days 19 34  
Month to date heating degree days 527 565  
Since 1 July heating degree days 1386 1449  
Cooling Degree Days 0 0  
Month to date cooling degree days 0 0  
Year to date cooling degree days 725 407  
Moisture  
Dew Point 35 °F    
Average Humidity 66    
Maximum Humidity 76    
Minimum Humidity 56    
Precipitation  
Precipitation T in 0.07 in 0.67 in (1953)
Month to date precipitation 1.16 1.33  
Year to date precipitation 27.74 30.38  
Snow  
Snow 0.00 in 0.30 in 3.40 in (2000)
Month to date snowfall 0.6 3.2  
Since 1 July snowfall 0.6 4.6  
Since 1 September snowfall 0.6 4.6  
Snow Depth 0.00 in    
Sea Level Pressure  
Sea Level Pressure 30.15 in    
Wind  
Wind Speed 4 mph (SE)    
Max Wind Speed 10 mph    
Max Gust Speed 13 mph    
Visibility 8 miles    
Events      
T = Trace of Precipitation, MM = Missing Value Source: NWS Daily Summary

Daily Weather History Graph

Daily Weather History Graph

Search for Another Location

Airport or City:

Trip Planner

Search our weather history database for the weather conditions in past years. The results will help you decide how hot, cold, wet, or windy it might be!

Date:

Astronomy

Nov. 19, 2012 Rise Set
Actual Time 7:02 AM CST 4:25 PM CST
Civil Twilight 6:29 AM CST 4:57 PM CST
Nautical Twilight 5:54 AM CST 5:33 PM CST
Astronomical Twilight 5:19 AM CST 6:08 PM CST
Moon 11:58 AM CST (11/19) 11:00 PM CST (11/19)
Length of Visible Light 10h 27m
Length of Day
9h 23m
Waxing Crescent, 41% of the Moon is Illuminated
Nov 19
Waxing Crescent
Nov 20
First Quarter
Nov 28
Full
Dec 6
Last Quarter
Dec 13
New

Hourly Weather History & Observations

Time (CST) Temp. Windchill Dew Point Humidity Pressure Visibility Wind Dir Wind Speed Gust Speed Precip Events Conditions
12:54 AM 43.0 °F 38.8 °F 32.0 °F 65% 30.24 in 9.0 mi SSE 6.9 mph - N/A   Partly Cloudy
1:54 AM 39.9 °F 35.8 °F 32.0 °F 73% 30.24 in 8.0 mi SE 5.8 mph - N/A   Mostly Cloudy
2:54 AM 41.0 °F 37.1 °F 33.1 °F 73% 30.22 in 8.0 mi ESE 5.8 mph - N/A   Overcast
3:54 AM 43.0 °F 39.5 °F 33.1 °F 68% 30.21 in 8.0 mi ESE 5.8 mph - N/A   Overcast
4:54 AM 43.0 °F 39.5 °F 33.1 °F 68% 30.21 in 8.0 mi SE 5.8 mph - N/A   Overcast
5:54 AM 42.1 °F 38.4 °F 33.1 °F 70% 30.20 in 8.0 mi SE 5.8 mph - N/A   Scattered Clouds
6:54 AM 41.0 °F 38.0 °F 33.1 °F 73% 30.21 in 8.0 mi SE 4.6 mph - N/A   Overcast
7:54 AM 42.1 °F 38.4 °F 33.1 °F 70% 30.19 in 6.0 mi ESE 5.8 mph - N/A   Haze
8:54 AM 43.0 °F 39.5 °F 34.0 °F 71% 30.19 in 6.0 mi SE 5.8 mph - N/A   Haze
9:54 AM 46.0 °F 42.5 °F 34.0 °F 63% 30.20 in 7.0 mi SSE 6.9 mph - N/A   Scattered Clouds
10:54 AM 48.9 °F - 35.1 °F 59% 30.19 in 8.0 mi South 6.9 mph - N/A   Overcast
11:54 AM 50.0 °F - 35.1 °F 57% 30.16 in 9.0 mi Calm Calm - N/A   Overcast
12:54 PM 51.1 °F - 37.0 °F 59% 30.12 in 10.0 mi SE 9.2 mph - 0.00 in   Overcast
1:54 PM 50.0 °F - 36.0 °F 59% 30.11 in 10.0 mi SE 5.8 mph - N/A   Overcast
2:54 PM 48.9 °F - 37.0 °F 64% 30.11 in 10.0 mi SSE 4.6 mph - N/A   Overcast
3:54 PM 48.9 °F - 36.0 °F 61% 30.11 in 10.0 mi Calm Calm - N/A   Overcast
4:54 PM 48.0 °F - 36.0 °F 63% 30.11 in 10.0 mi SE 5.8 mph - N/A   Overcast
5:54 PM 46.9 °F - 36.0 °F 66% 30.11 in 10.0 mi ESE 5.8 mph - N/A   Overcast
6:54 PM 46.0 °F 44.8 °F 36.0 °F 68% 30.12 in 9.0 mi SSW 3.5 mph - N/A   Overcast
7:54 PM 46.0 °F - 36.0 °F 68% 30.11 in 9.0 mi Calm Calm - N/A   Overcast
8:54 PM 46.0 °F - 37.0 °F 71% 30.09 in 8.0 mi Calm Calm - N/A   Overcast
9:54 PM 45.0 °F - 37.0 °F 74% 30.09 in 8.0 mi Calm Calm - N/A   Overcast
10:54 PM 45.0 °F - 36.0 °F 71% 30.08 in 7.0 mi Calm Calm - N/A   Overcast
11:54 PM 43.0 °F - 36.0 °F 76% 30.08 in 7.0 mi Calm Calm - N/A   Overcast